Content
SEND FEEDBACK

Daily
Averages
Monthly
Summary
United States of America

SWEET SPRINGS, MISSOURI


Home > North America > United States > Missouri
Elevation: 679 feet     Latitude: 38 58N     Longitude: 093 25W

WEATHER
 
SELECT A DAY
Number of Records: 190,972;   Date Range: 7/1/96 - 12/18/14
 
SHARE

PRINT THIS DATA

[ ← Previous Day ]
WEATHER ALMANAC - FEBRUARY 5, 2013
[ Next Day → ]
[ °C ]   °F
Weather ElementAverageHighLow
Temperature40.1 °F57 °F (2:53 pm)25 °F (2:53 am)
Dewpoint28.7 °F34 °F (12:53 pm)21.9 °F (2:53 am)
Humidity66.3 %92 % (1:53 am)42 % (2:53 pm)
Barometer30.01 in30.14 in (10:53 pm)29.94 in (3:53 am)
Wind Speed6.9 mph16.1 mph (10:53 am)
Wind Gust24.2 mph (10:53 am)
Weather ElementAverage
Visibility8.8 mi
Wind DirectionSW (227 °)

Weather ElementTotal
Precipitation---
Heating Degree Days24 (Base 65)
Averaged from 23 records on February 5, 2013
WEATHER CONDITIONS BREAKOUT
WIND DIRECTION BREAKOUT
WEATHER BY HOUR - FEBRUARY 5, 2013
[ °C ]   °F
Local TimeTemperatureDewpointHumidityBarometerVisibilityWind DirectionWind SpeedGust SpeedPrecipitationEventsConditions
1:53 AM26.1 °F24.1 °F92 %29.98 in6.0 miCalmClear
2:53 AM25.0 °F21.9 °F88 %29.97 in5.0 miSSW (210°)3.5 mphClear
3:53 AM26.1 °F23.0 °F88 %29.94 in5.0 miSouth (180°)6.9 mphClear
4:53 AM26.1 °F21.9 °F84 %29.94 in6.0 miSouth (180°)4.6 mphClear
5:53 AM27.0 °F24.1 °F89 %29.94 in7.0 miSSW (200°)3.5 mphClear
6:53 AM28.9 °F25.0 °F85 %29.94 in8.0 miSW (220°)8.1 mphClear
7:53 AM30.9 °F27.0 °F85 %29.96 in8.0 miSW (220°)13.8 mphClear
8:53 AM34.0 °F30.0 °F85 %29.98 in8.0 miWest (270°)8.1 mphClear
9:53 AM39.0 °F30.9 °F73 %29.99 in10.0 miWest (260°)8.1 mph18.4 mphClear
10:53 AM45.0 °F30.9 °F58 %29.99 in10.0 miWest (270°)16.1 mph24.2 mphClear
11:53 AM48.9 °F32.0 °F52 %29.99 in10.0 miWest (260°)12.7 mphClear
12:53 PM53.1 °F34.0 °F48 %29.97 in10.0 miWest (270°)9.2 mphClear
1:53 PM55.0 °F33.1 °F43 %29.98 in10.0 miWest (280°)11.5 mph19.6 mphClear
2:53 PM57.0 °F34.0 °F42 %29.99 in10.0 miWNW (300°)10.4 mphClear
3:53 PM54.0 °F34.0 °F47 %30.01 in10.0 miNW (320°)10.4 mphClear
4:53 PM53.1 °F34.0 °F48 %30.02 in10.0 miNW (320°)8.1 mphClear
5:53 PM48.0 °F32.0 °F54 %30.04 in10.0 miNW (310°)3.5 mphClear
6:53 PM45.0 °F30.9 °F58 %30.06 in10.0 miNNW (340°)5.8 mphClear
7:53 PM44.1 °F28.0 °F53 %30.08 in10.0 miNorth (350°)5.8 mphClear
8:53 PM43.0 °F27.0 °F53 %30.11 in10.0 miNorth (360°)5.8 mphClear
9:53 PM41.0 °F28.0 °F60 %30.13 in10.0 miCalmClear
10:53 PM37.9 °F28.0 °F68 %30.14 in10.0 miCalmClear
11:53 PM35.1 °F27.0 °F72 %30.14 in10.0 miEast (100°)3.5 mphClear
Hourly data recorded from KDMO, located miles away from Sweet Springs, Missouri







STORIES FROM OUR PARTNERS